Regional Weather Roundup
Issued by NWS Sterling, VA

Current Version | Previous Version | Text Only | Print | Product List | Glossary On
Versions: 1 2 3 4 5 6 7 8 9 10 11 12 13 14 15 16 17 18 19 20 21 22 23 24 25 26 27 28
000
ASUS41 KLWX 010410
RWRLWX

REGIONAL WEATHER ROUNDUP
NATIONAL WEATHER SERVICE BALTIMORE MD/WASHINGTON DC
1200 AM EDT SAT NOV 01 2014

Note: "FAIR" indicates few or no clouds below 12,000 feet
with no significant weather and/or obstructions to visibility.
 TC=TEMPERATURE CELSIUS

 * =Non NWS site. Station does not report precipitation (e.g. rain,
    snow, etc.), thunder, or fog.

DCZ001-MDZ009-015-VAZ040>042-051-053>054-010500-
WASHINGTON METRO

CITY           SKY/WX    TMP DP  RH WIND       PRES   REMARKS
WASHINGTON NAT CLOUDY    52  36  54 N10       29.84F
DULLES         CLOUDY    46  34  62 N5        29.84F
ANDREWS AFB    MOCLDY    42  37  83 NW6       29.83F
FT BELVOIR     MOCLDY    45  38  79 VRB1      29.84F
QUANTICO       MOCLDY    50  38  63 N8        29.84F
COLLEGE PARK*  MOCLDY    43  39  87 CALM      29.84F
LEESBURG*      CLOUDY    46  37  71 N6        29.86S
MANASSAS*      CLOUDY    45  39  81 NW6       29.83F
GAITHERSBURG*  CLOUDY    45  34  65 CALM      29.87F

$$

MDZ006>007-011-014-010500-
BALTIMORE METRO

CITY           SKY/WX    TMP DP  RH WIND       PRES   REMARKS
BWI AIRPORT    MOCLDY    47  36  65 N5        29.83F
MD SCIENCE CTR   N/A     50  36  58 MISG      29.84F
MARTIN STATE   MOCLDY    48  39  71 CALM      29.85F
ANNAPOLIS      PTCLDY    50  41  71 N9        29.82F
FORT MEADE*    PTCLDY    41  36  81 CALM      29.85F

$$

MDZ012-015-019>023-010500-
MARYLAND EASTERN SHORE

CITY           SKY/WX    TMP DP  RH WIND       PRES   REMARKS
OCEAN CITY     MOCLDY    48  44  86 NW8       29.75F
SALISBURY      PTCLDY    50  41  71 NW8       29.77F
BAY BRIDGE AP*   N/A     50  37  62 N6        29.82F
CAMBRIDGE*     CLOUDY    52  39  62 N7        29.79F
EASTON*        CLOUDY    49  41  74 N6        29.84F

$$

MDZ017>025-010500-
SOUTHERN MARYLAND

CITY           SKY/WX    TMP DP  RH WIND       PRES   REMARKS
PATUXENT RIVER FAIR      50  40  68 NW8       29.80F
ST INIGOES     MOCLDY    48  39  71 N5        29.79F
LEONARDTOWN*   PTCLDY    43  37  81 CALM      29.82F

$$

MDZ003>005-010500-
NORTH CENTRAL MARYLAND

CITY           SKY/WX    TMP DP  RH WIND       PRES   REMARKS
FREDERICK*     CLOUDY    45  37  76 N3        29.87F
HAGERSTOWN APT CLOUDY    47  37  68 N5        29.86S
WESTMINSTER*   CLOUDY    46  36  66 CALM      29.85S

$$

MDZ501>502-010500-
WESTERN MARYLAND

CITY           SKY/WX    TMP DP  RH WIND       PRES   REMARKS
OAKLAND*       CLOUDY    34 N/A N/A E7        29.81F HAZE
CUMBERLAND*    CLOUDY    45  43  93 CALM      29.91F

$$

VAZ025>031-010500-
SHENANDOAH VALLEY

CITY           SKY/WX    TMP DP  RH WIND       PRES   REMARKS
WINCHESTER*    LGT RAIN  46  34  61 NE5       29.85F
FRONT ROYAL*   CLOUDY    45  39  81 CALM      29.85S
LURAY*         LGT RAIN  45  43  93 N3        29.84S
NEW MARKET*    CLOUDY    44  41  91 N5        29.83F
STAUNTON*      DRIZZLE   45  42  89 CALM      29.84F
WAYNESBORO*    CLOUDY    43  41  95 CALM      29.81F

$$

WVZ021-048>050-054>055-010500-
EASTERN WEST VIRGINIA PANHANDLE

CITY           SKY/WX    TMP DP  RH WIND       PRES   REMARKS
MARTINSBURG    CLOUDY    49  35  58 N5        29.86F
PETERSBURG*    LGT RAIN  44  43  94 CALM      29.86F

$$

VAZ036>039-050-010500-
CENTRAL FOOTHILLS

CITY           SKY/WX    TMP DP  RH WIND       PRES   REMARKS
CHARLOTTESVILL CLOUDY    46  39  76 N5        29.82F
CULPEPER*      CLOUDY    48  39  71 NW3       29.84F
ORANGE*        MOCLDY    46  37  71 CALM      29.84F
GORDONSVILLE*  CLOUDY    46  38  72 CALM      29.82F
WARRENTON*     FAIR      43  42  94 CALM      29.83F

$$

VAZ055>057-010500-
NORTH AND CENTRAL PIEDMONT

CITY           SKY/WX    TMP DP  RH WIND       PRES   REMARKS
FREDERICKSBRG* CLOUDY    45  40  83 CALM      29.81F
STAFFORD*      CLOUDY    44  35  72 CALM      29.86F

$$

NCZ024-NYZ072-PAZ021-071-VAZ022-071-010500-
OTHER REGIONAL OBSERVATIONS

CITY           SKY/WX    TMP DP  RH WIND       PRES   REMARKS
NEW YORK CITY  LGT RAIN  48  44  86 NE9G20    29.89F
PHILADELPHIA   CLOUDY    51  39  63 NE7       29.83S
PITTSBURGH     DRIZZLE   41  39  93 NE6       29.88F
ROANOKE        CLOUDY    44  41  89 N7        29.82F
RICHMOND       PTCLDY    45  36  70 N5        29.80F
RALEIGH        MOCLDY    51  42  71 E8        29.76F

$$

ANZ530>537-010500-
MARINE OBSERVATIONS

STATION/POSITION TIME  TEMP    WIND        PRES
                       AIR SEA DIR/SP/G
                 (UTC) (F)     (DEG/KT/KT) (MB)
THOMAS PT LIGHT  0400   51 60  350/ 14/ 16 1010.4F
BALT KEY BRIDGE  0400   50     350/  9/ 10 1010.0F
COVE POINT       0400   51      20/ 13/ 15 1009.1S
LEWISETTA        0400   52 60   10/  7/ 10 1008.4F
SOLOMONS ISLAND  0400      62                N/A
PINEY POINT      0400           10/  9/ 11   N/A

$$




USA.gov is the U.S. government's official web portal to all federal, state and local government web resources and services.